Starlink 4037

operational
NORAD ID: 52663 Int'l Des: 2022-053 Owner: SPXS Country: US Constellation: starlink
LEOCIRCULAR

关于 Starlink 4037

正在加载描述...

实时位置

正在加载3D地球...

即将过境

高度历史

Altitude vs Time

uPlot chart will show altitude changes over time

两行轨道根数

1 52663U 22053H 25303.57732816 -.00000210 00000-0 48857-5 0 9997
2 52663 53.2206 18.2172 0001575 97.0308 263.0863 15.08833596191409
Epoch: Oct 30, 2025 • Age: 26 hours

当前状态

高度 551.8 km
速度 7.59 km/s
星下点 -35.58°S, 59.18°W
发射日期 May 18, 2022
运行时间 3.4 years
类型 internet

技术详情

分类 Payload
质量 297.00 kg
干质量 275.00 kg
总质量 297.00 kg
长度 0.20 m
直径 2.80 m
跨度 9.00 m
形状 Box + pan
制造商 SPXS
平台类型 Starlink
阶段状态 In Orbit
所有者/国家 SPXS/US

大型星座

Loading constellations...